Voltar ao catálogo

BREEZE-M DEB

AtivoHEO
NORAD 48535·DEBRIS·🇷🇺 Russia

Lançado Mar 14, 2008 de Baikonur Cosmodrome

Loading…

Próximas Passagens (próximas 24 horas)

TLE

AtualizadoSource: Space-Track

Época: Sep 14, 2026, 17:04 UTC

1 48535U 08011EA  26257.71176197  .00007792  00000-0  20164+0 0  9993
2 48535  50.3853  62.7251 6400753  71.0543 345.1735  3.08521477 52832

Acompanhe BREEZE-M DEB em tempo real com AllMySat

Download on the App Store